When you browse on this site, cookies collect data to enhance your experience and personalize the content and advertising you see.
Visit our Privacy Policy to learn more. By continuing to use the site, you agree to this use of cookies and data.
  • En España
  • Lista de países
  • Para 7 días
  • Temperatura del agua
  • El tiempo en el mapa
  • Informadores
  • user-avatar
    Iniciar sesión

    Tiempo cada hora Almaty

    Hoy, 23 Agosto, Viernes

    Tiempo Temperatura Precipitaciones Viento Presión Humedad
    00:00 +20°C° 0 mm 1 mps 688 mmHg 58%
    01:00 +20°C° 0 mm 1 mps 687 mmHg 58%
    02:00 +20°C° 0 mm 1 mps 687 mmHg 59%
    03:00 +19°C° 0 mm 1 mps 687 mmHg 59%
    04:00 +19°C° 0 mm 1 mps 687 mmHg 59%
    05:00 +18°C° 0 mm 2 mps 688 mmHg 58%
    06:00 +19°C° 0.3 mm 2 mps 688 mmHg 57%
    07:00 +22°C° 0.3 mm 1 mps 688 mmHg 55%
    08:00 +23°C° 0.3 mm 1 mps 688 mmHg 54%
    09:00 +24°C° 0.2 mm 2 mps 688 mmHg 52%
    10:00 +25°C° 0.2 mm 2 mps 688 mmHg 50%
    11:00 +26°C° 0 mm 2 mps 688 mmHg 46%
    12:00 +27°C° 0.5 mm 3 mps 688 mmHg 46%
    13:00 +27°C° 0.5 mm 3 mps 688 mmHg 46%
    14:00 +27°C° 0.5 mm 3 mps 687 mmHg 46%
    15:00 +26°C° 0.6 mm 2 mps 687 mmHg 49%
    16:00 +26°C° 0.6 mm 2 mps 688 mmHg 51%
    17:00 +25°C° 0.6 mm 1 mps 688 mmHg 54%
    18:00 +24°C° 0.1 mm 1 mps 688 mmHg 57%
    19:00 +23°C° 0.1 mm 1 mps 688 mmHg 59%
    20:00 +21°C° 0.1 mm 1 mps 688 mmHg 62%
    21:00 +21°C° 0 mm 1 mps 688 mmHg 61%
    22:00 +21°C° 0 mm 1 mps 688 mmHg 61%
    23:00 +19°C° 0 mm 2 mps 688 mmHg 61%

    Mañana, 24 Agosto, Sábado

    Tiempo Temperatura Precipitaciones Viento Presión Humedad
    00:00 +19°C° 0.1 mm 2 mps 688 mmHg 61%
    01:00 +18°C° 0.1 mm 2 mps 688 mmHg 61%
    02:00 +19°C° 0.1 mm 1 mps 688 mmHg 61%
    03:00 +18°C° 0.3 mm 2 mps 688 mmHg 62%
    04:00 +18°C° 0.3 mm 2 mps 689 mmHg 64%
    05:00 +18°C° 0.3 mm 2 mps 689 mmHg 65%
    06:00 +18°C° 0.4 mm 2 mps 689 mmHg 63%
    07:00 +20°C° 0.4 mm 1 mps 690 mmHg 60%
    08:00 +21°C° 0.4 mm 1 mps 690 mmHg 58%
    09:00 +21°C° 0.3 mm 2 mps 690 mmHg 55%
    10:00 +24°C° 0.3 mm 2 mps 690 mmHg 52%
    11:00 +25°C° 0.3 mm 2 mps 691 mmHg 49%
    12:00 +26°C° 0.3 mm 2 mps 690 mmHg 47%
    13:00 +26°C° 0.3 mm 2 mps 690 mmHg 45%
    14:00 +27°C° 0.3 mm 3 mps 690 mmHg 44%
    15:00 +26°C° 0 mm 3 mps 690 mmHg 44%
    16:00 +26°C° 0 mm 3 mps 690 mmHg 43%
    17:00 +26°C° 0 mm 3 mps 691 mmHg 43%
    18:00 +24°C° 0 mm 2 mps 690 mmHg 45%
    19:00 +21°C° 0 mm 2 mps 690 mmHg 48%
    20:00 +20°C° 0 mm 1 mps 690 mmHg 50%
    21:00 +20°C° 0 mm 1 mps 690 mmHg 50%
    22:00 +20°C° 0 mm 1 mps 690 mmHg 50%
    23:00 +19°C° 0 mm 1 mps 690 mmHg 50%

    Pasado mañana, 25 Agosto, Domingo

    Tiempo Temperatura Precipitaciones Viento Presión Humedad
    00:00 +19°C° 0 mm 1 mps 690 mmHg 49%
    01:00 +19°C° 0 mm 1 mps 689 mmHg 48%
    02:00 +18°C° 0 mm 1 mps 689 mmHg 48%
    03:00 +18°C° 0 mm 1 mps 689 mmHg 47%
    04:00 +18°C° 0 mm 1 mps 689 mmHg 46%
    05:00 +18°C° 0 mm 1 mps 689 mmHg 45%
    06:00 +20°C° 0 mm 1 mps 689 mmHg 42%
    07:00 +22°C° 0 mm 1 mps 689 mmHg 38%
    08:00 +24°C° 0 mm 1 mps 690 mmHg 35%
    09:00 +26°C° 0 mm 1 mps 690 mmHg 34%
    10:00 +27°C° 0 mm 2 mps 690 mmHg 32%
    11:00 +28°C° 0 mm 2 mps 690 mmHg 31%
    12:00 +29°C° 0 mm 2 mps 689 mmHg 31%
    13:00 +30°C° 0 mm 2 mps 689 mmHg 31%
    14:00 +30°C° 0 mm 2 mps 689 mmHg 31%
    15:00 +30°C° 0 mm 3 mps 689 mmHg 32%
    16:00 +30°C° 0 mm 3 mps 689 mmHg 34%
    17:00 +30°C° 0 mm 3 mps 689 mmHg 35%
    18:00 +27°C° 0 mm 2 mps 689 mmHg 39%
    19:00 +25°C° 0 mm 2 mps 689 mmHg 43%
    20:00 +23°C° 0 mm 2 mps 688 mmHg 47%
    21:00 +23°C° 0 mm 2 mps 688 mmHg 46%
    22:00 +21°C° 0 mm 2 mps 688 mmHg 46%
    23:00 +21°C° 0 mm 2 mps 688 mmHg 46%

    26 Agosto, Lunes

    Tiempo Temperatura Precipitaciones Viento Presión Humedad
    00:00 +21°C° 0 mm 2 mps 688 mmHg 44%
    01:00 +21°C° 0 mm 2 mps 687 mmHg 43%
    02:00 +20°C° 0 mm 2 mps 687 mmHg 41%
    03:00 +20°C° 0 mm 2 mps 687 mmHg 41%
    04:00 +20°C° 0 mm 2 mps 687 mmHg 40%
    05:00 +20°C° 0 mm 2 mps 687 mmHg 40%
    06:00 +23°C° 0 mm 2 mps 687 mmHg 37%
    07:00 +25°C° 0 mm 1 mps 687 mmHg 34%
    08:00 +27°C° 0 mm 1 mps 688 mmHg 32%
    09:00 +29°C° 0 mm 1 mps 688 mmHg 30%
    10:00 +30°C° 0 mm 1 mps 688 mmHg 27%
    11:00 +32°C° 0 mm 1 mps 688 mmHg 25%
    12:00 +34°C° 0 mm 2 mps 687 mmHg 25%
    13:00 +34°C° 0 mm 2 mps 687 mmHg 24%
    14:00 +35°C° 0 mm 2 mps 687 mmHg 23%
    15:00 +35°C° 0 mm 2 mps 687 mmHg 24%
    16:00 +35°C° 0 mm 2 mps 687 mmHg 25%
    17:00 +34°C° 0 mm 2 mps 687 mmHg 27%
    18:00 +31°C° 0 mm 2 mps 687 mmHg 30%
    19:00 +28°C° 0 mm 2 mps 687 mmHg 34%
    20:00 +26°C° 0 mm 2 mps 687 mmHg 38%
    21:00 +26°C° 0 mm 2 mps 687 mmHg 38%
    22:00 +25°C° 0 mm 2 mps 687 mmHg 38%
    23:00 +25°C° 0 mm 2 mps 687 mmHg 38%

    27 Agosto, Martes

    Tiempo Temperatura Precipitaciones Viento Presión Humedad
    00:00 +25°C° 0 mm 2 mps 686 mmHg 38%
    01:00 +25°C° 0 mm 2 mps 686 mmHg 37%
    02:00 +25°C° 0 mm 2 mps 686 mmHg 37%
    03:00 +24°C° 0 mm 2 mps 686 mmHg 38%
    04:00 +24°C° 0 mm 2 mps 686 mmHg 39%
    05:00 +24°C° 0 mm 2 mps 686 mmHg 40%
    06:00 +26°C° 0 mm 2 mps 686 mmHg 37%
    07:00 +28°C° 0 mm 1 mps 687 mmHg 34%
    08:00 +30°C° 0 mm 1 mps 687 mmHg 31%
    09:00 +31°C° 0 mm 1 mps 687 mmHg 29%
    10:00 +34°C° 0 mm 2 mps 687 mmHg 27%
    11:00 +35°C° 0 mm 2 mps 687 mmHg 25%
    12:00 +35°C° 0.2 mm 2 mps 687 mmHg 25%
    13:00 +36°C° 0.2 mm 2 mps 687 mmHg 26%
    14:00 +36°C° 0.2 mm 2 mps 687 mmHg 26%
    15:00 +35°C° 0.3 mm 2 mps 687 mmHg 28%
    16:00 +35°C° 0.3 mm 2 mps 688 mmHg 30%
    17:00 +34°C° 0.3 mm 2 mps 688 mmHg 32%
    18:00 +31°C° 0.2 mm 2 mps 688 mmHg 36%
    19:00 +29°C° 0.2 mm 3 mps 689 mmHg 39%
    20:00 +28°C° 0.2 mm 4 mps 689 mmHg 42%
    21:00 +27°C° 0 mm 3 mps 689 mmHg 41%
    22:00 +26°C° 0 mm 3 mps 689 mmHg 41%
    23:00 +25°C° 0 mm 2 mps 689 mmHg 40%

    28 Agosto, Miércoles

    Tiempo Temperatura Precipitaciones Viento Presión Humedad
    00:00 +25°C° 0 mm 2 mps 689 mmHg 41%
    01:00 +24°C° 0 mm 2 mps 689 mmHg 41%
    02:00 +22°C° 0 mm 3 mps 689 mmHg 41%
    03:00 +23°C° 0 mm 2 mps 689 mmHg 42%
    04:00 +21°C° 0 mm 2 mps 689 mmHg 43%
    05:00 +21°C° 0 mm 2 mps 689 mmHg 44%
    06:00 +24°C° 0 mm 1 mps 689 mmHg 41%
    07:00 +26°C° 0 mm 1 mps 689 mmHg 37%
    08:00 +27°C° 0 mm 1 mps 690 mmHg 34%
    09:00 +29°C° 0.1 mm 1 mps 690 mmHg 32%
    10:00 +30°C° 0.1 mm 2 mps 690 mmHg 29%
    11:00 +31°C° 0.1 mm 2 mps 690 mmHg 27%
    12:00 +32°C° 0.2 mm 2 mps 689 mmHg 26%
    13:00 +34°C° 0.2 mm 2 mps 689 mmHg 26%
    14:00 +34°C° 0.2 mm 2 mps 689 mmHg 25%
    15:00 +34°C° 0.1 mm 2 mps 689 mmHg 26%
    16:00 +34°C° 0.1 mm 2 mps 688 mmHg 27%
    17:00 +34°C° 0.1 mm 2 mps 688 mmHg 28%
    18:00 +30°C° 0 mm 2 mps 688 mmHg 32%
    19:00 +28°C° 0 mm 2 mps 688 mmHg 35%
    20:00 +26°C° 0 mm 2 mps 688 mmHg 39%
    21:00 +26°C° 0 mm 2 mps 688 mmHg 39%
    22:00 +25°C° 0 mm 2 mps 687 mmHg 38%
    23:00 +25°C° 0 mm 2 mps 687 mmHg 38%
    Mostrar más